• en Suisse
  • Liste des pays
  • À 7 jours
  • Température de l'eau
  • Carte satellitaire
  • Carte météo
  • Widgets météo
  • user-avatar
    Se connecter

    Météo par heure à Shkvary

    Ce jour, 15 Août, Mercredi

    Heure Température Précipitation Vent Pression Humidité
    00:00 +15°C° 0,5 mm 2 m/s 753 mmHg 87%
    01:00 +15°C° 0,5 mm 2 m/s 752 mmHg 91%
    02:00 +15°C° 0 mm 2 m/s 752 mmHg 95%
    03:00 +15°C° 0,8 mm 2 m/s 751 mmHg 96%
    04:00 +15°C° 0,8 mm 2 m/s 751 mmHg 97%
    05:00 +15°C° 0,8 mm 2 m/s 750 mmHg 98%
    06:00 +16°C° 0,7 mm 2 m/s 750 mmHg 97%
    07:00 +17°C° 0,7 mm 2 m/s 750 mmHg 96%
    08:00 +19°C° 0,7 mm 1 m/s 750 mmHg 95%
    09:00 +18°C° 0,5 mm 2 m/s 750 mmHg 95%
    10:00 +18°C° 0,5 mm 2 m/s 751 mmHg 95%
    11:00 +19°C° 0,5 mm 2 m/s 751 mmHg 95%
    12:00 +19°C° 0,1 mm 2 m/s 751 mmHg 94%
    13:00 +19°C° 0,1 mm 2 m/s 751 mmHg 93%
    14:00 +19°C° 0,1 mm 2 m/s 751 mmHg 92%
    15:00 +19°C° 0,1 mm 2 m/s 751 mmHg 91%
    16:00 +20°C° 0,1 mm 2 m/s 752 mmHg 89%
    17:00 +20°C° 0,1 mm 2 m/s 752 mmHg 88%
    18:00 +19°C° 0,1 mm 2 m/s 752 mmHg 91%
    19:00 +18°C° 0,1 mm 2 m/s 753 mmHg 94%
    20:00 +18°C° 0,1 mm 1 m/s 753 mmHg 96%
    21:00 +18°C° 0 mm 1 m/s 753 mmHg 97%
    22:00 +16°C° 0 mm 1 m/s 754 mmHg 98%
    23:00 +15°C° 0 mm 1 m/s 754 mmHg 98%

    Demain, 16 Août, Jeudi

    Heure Température Précipitation Vent Pression Humidité
    00:00 +15°C° 0 mm 1 m/s 754 mmHg 98%
    01:00 +15°C° 0 mm 2 m/s 755 mmHg 98%
    02:00 +15°C° 0 mm 2 m/s 755 mmHg 98%
    03:00 +15°C° 0 mm 1 m/s 756 mmHg 98%
    04:00 +14°C° 0 mm 1 m/s 756 mmHg 98%
    05:00 +14°C° 0 mm 1 m/s 756 mmHg 98%
    06:00 +15°C° 0 mm 1 m/s 757 mmHg 96%
    07:00 +16°C° 0 mm 1 m/s 757 mmHg 93%
    08:00 +18°C° 0 mm 1 m/s 758 mmHg 91%
    09:00 +19°C° 0 mm 1 m/s 758 mmHg 84%
    10:00 +20°C° 0 mm 1 m/s 758 mmHg 77%
    11:00 +22°C° 0 mm 1 m/s 759 mmHg 70%
    12:00 +22°C° 0 mm 1 m/s 759 mmHg 69%
    13:00 +22°C° 0 mm 1 m/s 759 mmHg 68%
    14:00 +22°C° 0 mm 1 m/s 759 mmHg 67%
    15:00 +22°C° 0 mm 1 m/s 759 mmHg 66%
    16:00 +23°C° 0 mm 1 m/s 759 mmHg 65%
    17:00 +23°C° 0 mm 1 m/s 759 mmHg 64%
    18:00 +21°C° 0 mm 1 m/s 759 mmHg 71%
    19:00 +19°C° 0 mm 1 m/s 759 mmHg 78%
    20:00 +15°C° 0 mm 0 m/s 760 mmHg 85%
    21:00 +15°C° 0 mm 0 m/s 760 mmHg 87%
    22:00 +14°C° 0 mm 0 m/s 760 mmHg 89%
    23:00 +14°C° 0 mm 0 m/s 760 mmHg 91%

    Après-demain, 17 Août, Vendredi

    Heure Température Précipitation Vent Pression Humidité
    00:00 +13°C° 0 mm 0 m/s 761 mmHg 91%
    01:00 +13°C° 0 mm 0 m/s 761 mmHg 92%
    02:00 +13°C° 0 mm 0 m/s 761 mmHg 92%
    03:00 +13°C° 0 mm 0 m/s 761 mmHg 93%
    04:00 +13°C° 0 mm 1 m/s 761 mmHg 93%
    05:00 +13°C° 0 mm 1 m/s 761 mmHg 93%
    06:00 +15°C° 0 mm 1 m/s 761 mmHg 87%
    07:00 +18°C° 0 mm 1 m/s 762 mmHg 80%
    08:00 +20°C° 0 mm 1 m/s 762 mmHg 74%
    09:00 +21°C° 0 mm 1 m/s 762 mmHg 68%
    10:00 +23°C° 0 mm 2 m/s 761 mmHg 63%
    11:00 +25°C° 0 mm 2 m/s 761 mmHg 57%
    12:00 +25°C° 0 mm 2 m/s 761 mmHg 57%
    13:00 +25°C° 0 mm 2 m/s 761 mmHg 57%
    14:00 +25°C° 0 mm 2 m/s 761 mmHg 58%
    15:00 +25°C° 0 mm 2 m/s 760 mmHg 59%
    16:00 +25°C° 0 mm 2 m/s 760 mmHg 61%
    17:00 +25°C° 0 mm 1 m/s 760 mmHg 63%
    18:00 +23°C° 0 mm 1 m/s 760 mmHg 70%
    19:00 +21°C° 0 mm 1 m/s 760 mmHg 77%
    20:00 +19°C° 0 mm 1 m/s 760 mmHg 84%
    21:00 +19°C° 0 mm 1 m/s 760 mmHg 86%
    22:00 +18°C° 0 mm 1 m/s 760 mmHg 88%
    23:00 +18°C° 0 mm 1 m/s 760 mmHg 90%

    18 Août, Samedi

    Heure Température Précipitation Vent Pression Humidité
    00:00 +16°C° 0 mm 1 m/s 760 mmHg 92%
    01:00 +16°C° 0 mm 2 m/s 760 mmHg 94%
    02:00 +16°C° 0 mm 2 m/s 760 mmHg 95%
    03:00 +16°C° 0 mm 2 m/s 760 mmHg 96%
    04:00 +16°C° 0 mm 2 m/s 760 mmHg 96%
    05:00 +15°C° 0 mm 2 m/s 760 mmHg 97%
    06:00 +17°C° 0 mm 2 m/s 760 mmHg 91%
    07:00 +19°C° 0 mm 2 m/s 760 mmHg 86%
    08:00 +20°C° 0 mm 2 m/s 760 mmHg 80%
    09:00 +22°C° 0,1 mm 3 m/s 760 mmHg 75%
    10:00 +24°C° 0,1 mm 3 m/s 760 mmHg 70%
    11:00 +26°C° 0,1 mm 3 m/s 760 mmHg 65%
    12:00 +26°C° 0,1 mm 3 m/s 759 mmHg 62%
    13:00 +27°C° 0,1 mm 3 m/s 759 mmHg 60%
    14:00 +28°C° 0,1 mm 3 m/s 759 mmHg 58%
    15:00 +27°C° 0,2 mm 3 m/s 758 mmHg 61%
    16:00 +27°C° 0,2 mm 2 m/s 758 mmHg 65%
    17:00 +27°C° 0,2 mm 2 m/s 758 mmHg 68%
    18:00 +25°C° 0,1 mm 2 m/s 758 mmHg 75%
    19:00 +23°C° 0,1 mm 2 m/s 758 mmHg 82%
    20:00 +20°C° 0,1 mm 2 m/s 758 mmHg 89%
    21:00 +20°C° 0 mm 2 m/s 758 mmHg 91%
    22:00 +19°C° 0 mm 2 m/s 758 mmHg 93%
    23:00 +18°C° 0 mm 2 m/s 758 mmHg 95%

    19 Août, Dimanche

    Heure Température Précipitation Vent Pression Humidité
    00:00 +18°C° 0 mm 2 m/s 758 mmHg 95%
    01:00 +18°C° 0 mm 2 m/s 758 mmHg 96%
    02:00 +17°C° 0 mm 2 m/s 758 mmHg 97%
    03:00 +17°C° 0 mm 2 m/s 758 mmHg 97%
    04:00 +17°C° 0 mm 2 m/s 758 mmHg 97%
    05:00 +17°C° 0 mm 2 m/s 758 mmHg 98%
    06:00 +18°C° 0 mm 2 m/s 757 mmHg 93%
    07:00 +19°C° 0 mm 3 m/s 757 mmHg 89%
    08:00 +20°C° 0 mm 3 m/s 757 mmHg 85%
    09:00 +21°C° 0 mm 3 m/s 757 mmHg 76%
    10:00 +22°C° 0 mm 4 m/s 757 mmHg 67%
    11:00 +23°C° 0 mm 4 m/s 757 mmHg 58%
    12:00 +22°C° 0,1 mm 4 m/s 757 mmHg 61%
    13:00 +22°C° 0,1 mm 4 m/s 757 mmHg 64%
    14:00 +21°C° 0,1 mm 4 m/s 757 mmHg 67%
    15:00 +20°C° 0,2 mm 3 m/s 757 mmHg 75%
    16:00 +19°C° 0,2 mm 3 m/s 757 mmHg 83%
    17:00 +19°C° 0,2 mm 3 m/s 757 mmHg 91%
    18:00 +18°C° 0,1 mm 3 m/s 757 mmHg 92%
    19:00 +17°C° 0,1 mm 2 m/s 757 mmHg 94%
    20:00 +17°C° 0,1 mm 2 m/s 757 mmHg 95%
    21:00 +16°C° 0 mm 2 m/s 757 mmHg 95%
    22:00 +15°C° 0 mm 2 m/s 758 mmHg 96%
    23:00 +14°C° 0 mm 2 m/s 758 mmHg 96%

    20 Août, Lundi

    Heure Température Précipitation Vent Pression Humidité
    00:00 +14°C° 0 mm 2 m/s 758 mmHg 96%
    01:00 +13°C° 0 mm 2 m/s 758 mmHg 96%
    02:00 +13°C° 0 mm 2 m/s 758 mmHg 97%
    03:00 +12°C° 0 mm 2 m/s 758 mmHg 97%
    04:00 +12°C° 0 mm 2 m/s 758 mmHg 97%
    05:00 +12°C° 0 mm 2 m/s 759 mmHg 97%
    06:00 +13°C° 0 mm 2 m/s 759 mmHg 94%
    07:00 +14°C° 0 mm 2 m/s 759 mmHg 91%
    08:00 +16°C° 0 mm 2 m/s 759 mmHg 88%
    09:00 +17°C° 0 mm 2 m/s 759 mmHg 77%
    10:00 +19°C° 0 mm 2 m/s 759 mmHg 66%
    11:00 +20°C° 0 mm 2 m/s 759 mmHg 55%
    12:00 +21°C° 0 mm 2 m/s 759 mmHg 52%
    13:00 +23°C° 0 mm 2 m/s 759 mmHg 48%
    14:00 +23°C° 0 mm 2 m/s 759 mmHg 45%
    15:00 +23°C° 0 mm 1 m/s 758 mmHg 48%
    16:00 +23°C° 0 mm 1 m/s 758 mmHg 51%
    17:00 +22°C° 0 mm 1 m/s 758 mmHg 54%
    18:00 +21°C° 0 mm 1 m/s 758 mmHg 60%
    19:00 +19°C° 0 mm 1 m/s 758 mmHg 66%
    20:00 +16°C° 0 mm 2 m/s 758 mmHg 72%
    21:00 +15°C° 0 mm 2 m/s 758 mmHg 76%
    22:00 +15°C° 0 mm 2 m/s 758 mmHg 79%
    23:00 +14°C° 0 mm 2 m/s 758 mmHg 82%
    Voir plus